Find Starlink 36964

NORAD ID: 68184 Int'l Des: 2026-050 Owner: SPXS Country: US Constellation: starlink operational
LEOCIRCULAR

Current View

Loading 3D Globe...

About Starlink 36964

Starlink 36964 (NORAD 68184) is a starlink constellation satellite (v2 mini) launched Mar 14, 2026 by SPXS of US. It operates in LEO, CIRCULAR orbit with a mass of 575.00 kg.

About Starlink 36964

Description loading...

Upcoming Passes

Passes for default location (London). Set your location on the main map for personalized predictions.

Altitude History

Loading altitude history...

Two-Line Element Set

1 68184U 26050T 26166.16675183 .00016329 00000-0 49350-3 0 9993
2 68184 53.1577 172.8219 0001174 77.4591 282.6543 15.34391925 15629
Epoch: Jun 15, 2026 • Age: 6 hours

Current Status

Altitude 480.1 km
Velocity 7.62 km/s
Sub-Earth Point -48.68°S, 60.72°E
Launch Date Mar 14, 2026
Age 0.2 years
Type internet

Technical Details

Classification Payload
Mass 575.00 kg
Dry Mass 530.00 kg
Total Mass 575.00 kg
Length 0.30 m
Diameter 4.10 m
Span 29.00 m
Shape Box + pan
Manufacturer SPXS
Bus Type Starlink V2MO
Phase Status In Orbit
Owner/State SPXS/US

Most Searched